GW3026 Weather Reports


Display with metric or nautical units.
time (UTC)temp
F
wind
direction
speed
MPH
gust
MPH
rain 1hr
in
rain 24hr
in
rain mn
in
humidity
%
barometer
mb
20260505022604 38 248 3.0 9.0 0.00 0.10 0.10 89 1015.6
20260505022104 38 232 3.0 9.0 0.00 0.10 0.10 89 1015.5
20260505021605 39 247 2.0 9.0 0.00 0.10 0.10 88 1015.3
20260505021104 39 220 3.0 12.0 0.00 0.10 0.10 88 1015.3
20260505020105 39 157 2.0 14.0 0.00 0.10 0.10 88 1014.9
20260505015605 39 257 6.0 14.0 0.00 0.10 0.10 88 1014.9
20260505015104 39 268 7.0 12.0 0.00 0.10 0.10 88 1014.8
20260505014604 39 248 7.0 13.0 0.01 0.10 0.10 88 1014.7
20260505014104 39 251 7.0 13.0 0.01 0.10 0.10 88 1015.0
20260505013605 39 245 6.0 12.0 0.01 0.10 0.10 87 1014.8
20260505012604 39 245 6.0 13.0 0.01 0.10 0.10 86 1014.9
20260505011604 39 248 7.0 12.0 0.01 0.10 0.10 87 1015.4
20260505010604 39 226 6.0 10.0 0.02 0.10 0.10 88 1015.0
20260505010105 40 224 3.0 7.0 0.03 0.10 0.10 90 1015.5
20260505005604 40 162 2.0 3.0 0.03 0.10 0.10 89 1015.3
20260505004605 39 172 2.0 8.0 0.03 0.09 0.09 89 1015.1
20260505004105 39 172 2.0 8.0 0.03 0.09 0.09 90 1015.1
20260505003604 39 192 4.0 8.0 0.03 0.09 0.09 89 1015.1
20260505003105 38 208 4.0 7.0 0.03 0.09 0.09 89 1015.1
20260505002604 38 236 3.0 7.0 0.03 0.09 0.09 89 1015.1
20260504235605 38 353 5.0 12.0 0.05 0.07 0.07 88 1016.0
20260504235105 38 347 6.0 12.0 0.04 0.06 0.06 87 1016.1
20260504234605 38 341 6.0 12.0 0.04 0.06 0.06 87 1015.7
20260504234104 38 334 5.0 12.0 0.04 0.06 0.06 86 1015.7
20260504233604 38 345 5.0 12.0 0.05 0.06 0.06 87 1015.4
20260504233104 38 343 5.0 9.0 0.05 0.06 0.06 87 1015.3
20260504232605 38 342 3.0 8.0 0.06 0.06 0.06 88 1015.1
20260504232105 38 333 3.0 8.0 0.06 0.06 0.06 87 1015.1
20260504231605 38 340 2.0 5.0 0.05 0.05 0.05 85 1014.9
20260504231105 39 333 2.0 5.0 0.04 0.04 0.04 84 1014.8
20260504230605 40 356 2.0 5.0 0.03 0.03 0.03 81 1014.9
20260504230105 40 1 1.0 3.0 0.02 0.02 0.02 82 1014.7
20260504225605 41 4 1.0 6.0 0.02 0.02 0.02 80 1015.1
20260504225104 41 126 2.0 6.0 0.02 0.02 0.02 78 1014.9
20260504224105 41 75 1.0 8.0 0.02 0.02 0.02 75 1014.9
20260504223604 42 90 3.0 8.0 0.01 0.01 0.01 72 1014.9
20260504223105 44 120 2.0 8.0 0.01 0.01 0.01 68 1014.7
20260504222105 47 51 2.0 8.0 0.00 0.00 0.00 60 1014.8
20260504221605 50 9 3.0 8.0 0.00 0.00 0.00 52 1014.8
20260504220605 51 131 4.0 8.0 0.00 0.00 0.00 45 1014.3
20260504220105 51 109 2.0 8.0 0.00 0.00 0.00 46 1014.2
20260504215605 52 114 3.0 8.0 0.00 0.00 0.00 45 1014.2
20260504215105 52 130 5.0 9.0 0.00 0.00 0.00 45 1014.1
20260504214604 52 139 5.0 9.0 0.00 0.00 0.00 44 1014.1
20260504214104 52 134 4.0 8.0 0.00 0.00 0.00 43 1014.3
20260504213105 53 165 3.0 7.0 0.00 0.00 0.00 42 1014.3
20260504212605 53 171 3.0 7.0 0.00 0.00 0.00 42 1014.3
20260504212105 53 53 3.0 5.0 0.00 0.00 0.00 42 1014.3
20260504205605 54 44 2.0 8.0 0.00 0.00 0.00 43 1014.7
20260504205106 54 236 2.0 8.0 0.00 0.00 0.00 41 1014.7
20260504204105 55 47 5.0 7.0 0.00 0.00 0.00 43 1015.1
20260504203605 54 133 3.0 7.0 0.00 0.00 0.00 45 1015.3
20260504203105 54 93 3.0 10.0 0.00 0.00 0.00 45 1015.3
20260504202605 54 92 3.0 12.0 0.00 0.00 0.00 45 1015.5
20260504202105 54 112 3.0 12.0 0.00 0.00 0.00 45 1015.6
20260504201604 53 61 3.0 9.0 0.00 0.00 0.00 47 1015.7
20260504201105 52 160 2.0 7.0 0.00 0.00 0.00 46 1015.1
20260504200605 52 133 2.0 12.0 0.00 0.00 0.00 47 1015.0
20260504200105 51 347 3.0 12.0 0.00 0.00 0.00 48 1015.0
20260504195605 51 346 5.0 10.0 0.00 0.00 0.00 47 1015.7
20260504195105 51 83 2.0 10.0 0.00 0.00 0.00 48 1015.5
20260504194605 50 39 3.0 10.0 0.00 0.00 0.00 48 1015.5
20260504194105 50 15 4.0 8.0 0.00 0.00 0.00 46 1015.6
20260504193605 50 5 3.0 6.0 0.00 0.00 0.00 46 1015.6
20260504193105 50 28 2.0 9.0 0.00 0.00 0.00 47 1015.5
20260504192605 51 50 2.0 10.0 0.00 0.00 0.00 45 1015.6
20260504192106 50 90 2.0 10.0 0.00 0.00 0.00 46 1015.6
20260504191605 51 88 2.0 10.0 0.00 0.00 0.00 46 1015.5
20260504191105 51 132 2.0 10.0 0.00 0.00 0.00 46 1015.5
20260504190605 51 129 2.0 10.0 0.00 0.00 0.00 46 1015.5
20260504185605 51 120 3.0 12.0 0.00 0.00 0.00 43 1015.7
20260504185106 52 257 4.0 12.0 0.00 0.00 0.00 41 1015.5
20260504184605 52 340 3.0 12.0 0.00 0.00 0.00 40 1015.5
20260504184105 53 353 5.0 15.0 0.00 0.00 0.00 40 1015.6
20260504183605 54 133 9.0 15.0 0.00 0.00 0.00 39 1015.5
20260504183106 54 62 4.0 10.0 0.00 0.00 0.00 40 1015.6
20260504182605 52 288 3.0 12.0 0.00 0.00 0.00 38 1015.6
20260504181605 50 346 3.0 24.0 0.00 0.00 0.00 37 1015.6
20260504181106 50 216 10.0 24.0 0.00 0.00 0.00 37 1015.6
20260504180605 50 244 6.0 16.0 0.00 0.00 0.00 39 1015.6
20260504175606 50 217 10.0 18.0 0.00 0.00 0.00 37 1015.7
20260504175105 52 241 10.0 18.0 0.00 0.00 0.00 36 1015.7
20260504174605 52 246 5.0 9.0 0.00 0.00 0.00 32 1015.5
20260504173105 53 348 5.0 21.0 0.00 0.00 0.00 33 1015.8
20260504172601 53 334 13.0 21.0 0.00 0.00 0.00 33 1015.7
20260504172101 53 216 4.0 17.0 0.00 0.00 0.00 31 1015.7
20260504171601 53 343 10.0 17.0 0.00 0.00 0.00 30 1015.8
20260504171101 54 257 3.0 13.0 0.00 0.00 0.00 32 1015.8
20260504170602 54 39 4.0 13.0 0.00 0.00 0.00 32 1015.8
20260504151101 48 273 9.0 17.0 0.00 0.00 0.00 41 1017.1
20260504141102 48 311 2.0 8.0 0.00 0.00 0.00 37 1017.2
20260504140601 48 272 3.0 12.0 0.00 0.00 0.00 37 1017.2
20260504130602 47 292 8.0 15.0 0.00 0.00 0.00 35 1017.2
20260504130103 47 310 7.0 15.0 0.00 0.00 0.00 35 1017.2
20260504100603 46 301 5.0 10.0 0.00 0.00 0.00 33 1016.8
20260504081103 46 282 5.0 9.0 0.00 0.00 0.00 35 1017.8
20260504080602 46 286 5.0 9.0 0.00 0.00 0.00 35 1017.8
20260504050603 47 269 6.0 12.0 0.00 0.00 0.00 36 1019.1
20260504050104 47 263 5.0 10.0 0.00 0.00 0.00 36 1019.1
20260504045603 47 267 5.0 10.0 0.00 0.00 0.00 36 1019.2
20260504044603 48 267 6.0 10.0 0.00 0.00 0.00 35 1019.2
20260504044103 48 274 5.0 10.0 0.00 0.00 0.00 35 1019.3
20260504043103 49 280 5.0 10.0 0.00 0.00 0.00 33 1019.5
20260504042603 49 298 6.0 10.0 0.00 0.00 0.00 33 1019.4
20260504041603 48 307 5.0 8.0 0.00 0.00 0.00 34 1019.5
20260504041103 48 312 5.0 7.0 0.00 0.00 0.00 34 1019.5
20260504040603 47 317 3.0 7.0 0.00 0.00 0.00 35 1019.6
20260504040104 47 332 3.0 7.0 0.00 0.00 0.00 36 1019.6
20260504035606 47 340 3.0 6.0 0.00 0.00 0.00 37 1019.6
20260504035103 48 311 2.0 6.0 0.00 0.00 0.00 36 1019.6
20260504034604 48 327 2.0 6.0 0.00 0.00 0.00 36 1019.5
20260504034104 48 351 3.0 6.0 0.00 0.00 0.00 36 1019.6
20260504032604 46 280 2.0 5.0 0.00 0.00 0.00 41 1019.6
20260504032104 47 259 2.0 3.0 0.00 0.00 0.00 42 1019.7
20260504031604 47 250 2.0 3.0 0.00 0.00 0.00 40 1019.6
20260504031103 48 250 2.0 3.0 0.00 0.00 0.00 39 1019.5
20260504030606 48 244 1.0 3.0 0.00 0.00 0.00 40 1019.5
20260504025603 48 245 2.0 3.0 0.00 0.00 0.00 40 1019.5
20260504025102 48 244 1.0 3.0 0.00 0.00 0.00 40 1019.5
20260504024603 48 142 1.0 3.0 0.00 0.00 0.00 40 1019.6
20260504024102 48 119 0.0 3.0 0.00 0.00 0.00 39 1019.6
20260504023602 48 119 0.0 3.0 0.00 0.00 0.00 38 1019.6